Meteo pe oră la Abadan

Astăzi, 14 Iunie, Luni

Timp Temperatura Precipitaţii Vânt Presiune Umiditate
00:00 +41°C° 0 mm 13 m/s 749 mmHg 10%
01:00 +39°C° 0 mm 13 m/s 749 mmHg 12%
02:00 +38°C° 0 mm 13 m/s 749 mmHg 13%
03:00 +38°C° 0 mm 12 m/s 749 mmHg 14%
04:00 +38°C° 0 mm 12 m/s 749 mmHg 13%
05:00 +38°C° 0 mm 12 m/s 749 mmHg 12%
06:00 +38°C° 0 mm 11 m/s 749 mmHg 11%
07:00 +41°C° 0 mm 11 m/s 749 mmHg 9%
08:00 +43°C° 0 mm 12 m/s 748 mmHg 7%
09:00 +46°C° 0 mm 12 m/s 748 mmHg 5%
10:00 +48°C° 0 mm 11 m/s 748 mmHg 4%
11:00 +49°C° 0 mm 10 m/s 747 mmHg 3%
12:00 +51°C° 0 mm 9 m/s 747 mmHg 2%
13:00 +51°C° 0 mm 8 m/s 746 mmHg 2%
14:00 +52°C° 0 mm 8 m/s 746 mmHg 2%
15:00 +52°C° 0 mm 7 m/s 745 mmHg 2%
16:00 +52°C° 0 mm 7 m/s 745 mmHg 2%
17:00 +51°C° 0 mm 6 m/s 745 mmHg 2%
18:00 +49°C° 0 mm 5 m/s 745 mmHg 3%
19:00 +48°C° 0 mm 6 m/s 746 mmHg 4%
20:00 +46°C° 0 mm 7 m/s 746 mmHg 5%
21:00 +44°C° 0 mm 8 m/s 746 mmHg 7%
22:00 +43°C° 0 mm 7 m/s 746 mmHg 8%
23:00 +41°C° 0 mm 7 m/s 746 mmHg 9%

Mâine, 15 Iunie, Marţi

Timp Temperatura Precipitaţii Vânt Presiune Umiditate
00:00 +40°C° 0 mm 7 m/s 746 mmHg 10%
01:00 +39°C° 0 mm 6 m/s 746 mmHg 11%
02:00 +37°C° 0 mm 5 m/s 746 mmHg 12%
03:00 +36°C° 0 mm 5 m/s 746 mmHg 13%
04:00 +36°C° 0 mm 4 m/s 747 mmHg 13%
05:00 +36°C° 0 mm 3 m/s 747 mmHg 14%
06:00 +36°C° 0 mm 3 m/s 747 mmHg 14%
07:00 +39°C° 0 mm 3 m/s 747 mmHg 11%
08:00 +42°C° 0 mm 4 m/s 747 mmHg 9%
09:00 +46°C° 0 mm 5 m/s 747 mmHg 7%
10:00 +48°C° 0 mm 6 m/s 747 mmHg 6%
11:00 +51°C° 0 mm 7 m/s 747 mmHg 5%
12:00 +55°C° 0 mm 8 m/s 746 mmHg 4%
13:00 +55°C° 0 mm 8 m/s 746 mmHg 3%
14:00 +55°C° 0 mm 8 m/s 746 mmHg 3%
15:00 +55°C° 0 mm 7 m/s 745 mmHg 3%
16:00 +55°C° 0 mm 7 m/s 745 mmHg 3%
17:00 +53°C° 0 mm 7 m/s 745 mmHg 4%
18:00 +52°C° 0 mm 6 m/s 745 mmHg 4%
19:00 +51°C° 0 mm 8 m/s 745 mmHg 5%
20:00 +49°C° 0 mm 9 m/s 746 mmHg 6%
21:00 +48°C° 0 mm 10 m/s 746 mmHg 7%
22:00 +47°C° 0 mm 10 m/s 746 mmHg 8%
23:00 +45°C° 0 mm 10 m/s 747 mmHg 9%

Poimâine, 16 Iunie, Miercuri

Timp Temperatura Precipitaţii Vânt Presiune Umiditate
00:00 +44°C° 0 mm 9 m/s 747 mmHg 9%
01:00 +43°C° 0 mm 10 m/s 747 mmHg 11%
02:00 +42°C° 0 mm 10 m/s 747 mmHg 13%
03:00 +40°C° 0 mm 10 m/s 747 mmHg 14%
04:00 +39°C° 0 mm 10 m/s 747 mmHg 15%
05:00 +39°C° 0 mm 10 m/s 748 mmHg 15%
06:00 +38°C° 0 mm 10 m/s 748 mmHg 16%
07:00 +42°C° 0 mm 11 m/s 748 mmHg 14%
08:00 +44°C° 0 mm 11 m/s 748 mmHg 11%
09:00 +47°C° 0 mm 12 m/s 749 mmHg 9%
10:00 +48°C° 0 mm 12 m/s 749 mmHg 7%
11:00 +49°C° 0 mm 12 m/s 748 mmHg 6%
12:00 +52°C° 0 mm 12 m/s 748 mmHg 5%
13:00 +52°C° 0 mm 12 m/s 748 mmHg 5%
14:00 +52°C° 0 mm 11 m/s 748 mmHg 5%
15:00 +52°C° 0 mm 11 m/s 747 mmHg 4%
16:00 +50°C° 0 mm 10 m/s 748 mmHg 5%
17:00 +50°C° 0 mm 10 m/s 748 mmHg 6%
18:00 +49°C° 0 mm 9 m/s 748 mmHg 6%
19:00 +47°C° 0 mm 9 m/s 748 mmHg 6%
20:00 +45°C° 0 mm 9 m/s 749 mmHg 7%
21:00 +43°C° 0 mm 9 m/s 749 mmHg 7%
22:00 +42°C° 0 mm 9 m/s 749 mmHg 8%
23:00 +40°C° 0 mm 9 m/s 749 mmHg 9%

17 Iunie, Joi

Timp Temperatura Precipitaţii Vânt Presiune Umiditate
00:00 +39°C° 0 mm 9 m/s 749 mmHg 10%
01:00 +38°C° 0 mm 9 m/s 749 mmHg 11%
02:00 +38°C° 0 mm 10 m/s 749 mmHg 13%
03:00 +37°C° 0 mm 10 m/s 749 mmHg 14%
04:00 +37°C° 0 mm 10 m/s 749 mmHg 15%
05:00 +37°C° 0 mm 10 m/s 749 mmHg 15%
06:00 +37°C° 0 mm 10 m/s 749 mmHg 16%
07:00 +39°C° 0 mm 11 m/s 749 mmHg 14%
08:00 +42°C° 0 mm 12 m/s 749 mmHg 12%
09:00 +45°C° 0 mm 13 m/s 749 mmHg 10%
10:00 +46°C° 0 mm 13 m/s 749 mmHg 9%
11:00 +47°C° 0 mm 13 m/s 749 mmHg 8%
12:00 +50°C° 0 mm 13 m/s 749 mmHg 7%
13:00 +50°C° 0 mm 13 m/s 748 mmHg 6%
14:00 +51°C° 0 mm 13 m/s 748 mmHg 6%
15:00 +51°C° 0 mm 13 m/s 748 mmHg 5%
16:00 +50°C° 0 mm 13 m/s 748 mmHg 6%
17:00 +48°C° 0 mm 12 m/s 748 mmHg 6%
18:00 +47°C° 0 mm 12 m/s 748 mmHg 7%
19:00 +46°C° 0 mm 12 m/s 748 mmHg 7%
20:00 +43°C° 0 mm 12 m/s 749 mmHg 8%
21:00 +42°C° 0 mm 11 m/s 749 mmHg 9%
22:00 +41°C° 0 mm 11 m/s 749 mmHg 10%
23:00 +38°C° 0 mm 11 m/s 749 mmHg 12%

18 Iunie, Vineri

Timp Temperatura Precipitaţii Vânt Presiune Umiditate
00:00 +37°C° 0 mm 11 m/s 748 mmHg 13%
01:00 +37°C° 0 mm 10 m/s 748 mmHg 15%
02:00 +36°C° 0 mm 10 m/s 748 mmHg 16%
03:00 +36°C° 0 mm 10 m/s 748 mmHg 18%
04:00 +34°C° 0 mm 10 m/s 748 mmHg 19%
05:00 +34°C° 0 mm 9 m/s 748 mmHg 19%
06:00 +34°C° 0 mm 9 m/s 749 mmHg 20%
07:00 +37°C° 0 mm 10 m/s 748 mmHg 17%
08:00 +39°C° 0 mm 10 m/s 748 mmHg 15%
09:00 +42°C° 0 mm 10 m/s 748 mmHg 13%
10:00 +44°C° 0 mm 10 m/s 748 mmHg 11%
11:00 +47°C° 0 mm 10 m/s 748 mmHg 9%
12:00 +49°C° 0 mm 9 m/s 747 mmHg 7%
13:00 +50°C° 0 mm 9 m/s 747 mmHg 7%
14:00 +51°C° 0 mm 9 m/s 747 mmHg 6%
15:00 +53°C° 0 mm 9 m/s 746 mmHg 5%
16:00 +51°C° 0 mm 8 m/s 746 mmHg 5%
17:00 +51°C° 0 mm 8 m/s 746 mmHg 5%
18:00 +50°C° 0 mm 8 m/s 746 mmHg 5%
19:00 +47°C° 0 mm 7 m/s 746 mmHg 6%
20:00 +45°C° 0 mm 7 m/s 747 mmHg 7%
21:00 +43°C° 0 mm 7 m/s 747 mmHg 8%
22:00 +41°C° 0 mm 7 m/s 748 mmHg 9%
23:00 +41°C° 0 mm 8 m/s 748 mmHg 10%

19 Iunie, Sâmbătă

Timp Temperatura Precipitaţii Vânt Presiune Umiditate
00:00 +40°C° 0 mm 8 m/s 748 mmHg 10%
01:00 +39°C° 0 mm 8 m/s 748 mmHg 12%
02:00 +38°C° 0 mm 7 m/s 748 mmHg 13%
03:00 +36°C° 0 mm 7 m/s 748 mmHg 14%
04:00 +36°C° 0 mm 7 m/s 748 mmHg 15%
05:00 +35°C° 0 mm 6 m/s 749 mmHg 16%
06:00 +35°C° 0 mm 6 m/s 749 mmHg 16%
07:00 +38°C° 0 mm 6 m/s 749 mmHg 14%
08:00 +41°C° 0 mm 7 m/s 749 mmHg 12%
09:00 +44°C° 0 mm 7 m/s 749 mmHg 10%
10:00 +46°C° 0 mm 7 m/s 749 mmHg 8%
11:00 +48°C° 0 mm 6 m/s 749 mmHg 7%
12:00 +51°C° 0 mm 6 m/s 749 mmHg 6%
13:00 +51°C° 0 mm 6 m/s 748 mmHg 5%
14:00 +52°C° 0 mm 5 m/s 748 mmHg 5%
15:00 +52°C° 0 mm 5 m/s 748 mmHg 4%
16:00 +52°C° 0 mm 5 m/s 748 mmHg 5%
17:00 +50°C° 0 mm 4 m/s 747 mmHg 5%
18:00 +50°C° 0 mm 4 m/s 747 mmHg 6%
19:00 +48°C° 0 mm 4 m/s 748 mmHg 7%
20:00 +45°C° 0 mm 4 m/s 748 mmHg 8%
21:00 +43°C° 0 mm 4 m/s 748 mmHg 9%
22:00 +42°C° 0 mm 4 m/s 748 mmHg 10%
23:00 +41°C° 0 mm 5 m/s 748 mmHg 11%
Arată mai mult

Formular de consimțământ

Meteoprog și furnizorii noștri de servicii pot stoca și accesa date personale, precum cookies, identificatori de dispozitiv sau alte tehnologii similare pe dispozitivul dumneavoastră și procesa astfel de date pentru a personaliza conținutul și reclamele, dar și pentru a oferi caracteristici de social media și pentru a analiza traficul.

  • Stocarea și/sau accesarea informațiilor pe dispozitivul dumneavoastră

    Cookies, identificatori de dispozitiv sau alte informații pot fi stocate sau accesate pe dispozitiv în scopurile indicate mai sus.

  • Reclame și conținut personalizat, evaluarea reclamelor și a conținutului, informații despre audiențe și dezvoltarea produselor

    Reclamele și conținutul pot fi personalizate pe baza unui profil. Pot fi adăugate date suplimentare pentru a personaliza mai bine reclamele și conținutul. Performanța reclamelor și conținutului poate fi măsurată. Pot fi obținute informații despre utilizatorii care au văzut reclamele și conținutul. Aceste date pot fi utilizate pentru a dezvolta sau îmbunătăți experiența utilizatorilor, sistemele și software-ul.

Dând clic pe ‘Sunt de acord’, permiteți utilizarea cookie-urilor menționate, a identificatorilor de dispozitiv, balizelor web sau altor tehnologii similare. Setările pot fi modificate din browser-ul dispozitivului dumneavoastră.

În anumite scopuri, interesele legitime pot prima asupra consimțământului. Puteți citi mai multe informații în acest sens în Politica privind Confidențialitatea Datelor și Cookie.